TimeEDT,TemperatureF,Dew PointF,Humidity,Sea Level PressureIn,VisibilityMPH,Wind Direction,Wind SpeedMPH,Gust SpeedMPH,PrecipitationIn,Events,Conditions,WindDirDegrees,DateUTC
12:40 AM,32.0,21.2,64,29.82,2.5,NW,8.1,19.6,0.00,Snow,Light Snow,310,2013-03-20 04:40:00
12:46 AM,30.2,21.2,69,29.82,4.0,Variable,5.8,-,0.00,Snow,Light Snow,0,2013-03-20 04:46:00
12:53 AM,32.0,21.0,64,29.83,10.0,WNW,5.8,-,0.00,,Scattered Clouds,300,2013-03-20 04:53:00
1:53 AM,32.0,18.0,56,29.85,10.0,Variable,4.6,16.1,N/A,,Scattered Clouds,0,2013-03-20 05:53:00
2:53 AM,30.9,17.1,57,29.85,10.0,WSW,3.5,-,N/A,,Clear,240,2013-03-20 06:53:00
3:53 AM,30.0,14.0,51,29.83,10.0,Variable,4.6,-,N/A,,Scattered Clouds,0,2013-03-20 07:53:00
4:53 AM,28.9,15.1,56,29.85,10.0,WSW,4.6,-,N/A,,Scattered Clouds,240,2013-03-20 08:53:00
5:53 AM,28.0,16.0,61,29.85,10.0,SSW,3.5,-,N/A,,Mostly Cloudy,200,2013-03-20 09:53:00
6:53 AM,28.9,17.1,61,29.86,10.0,SW,4.6,-,N/A,,Overcast,220,2013-03-20 10:53:00
7:53 AM,30.9,17.1,57,29.86,10.0,SW,5.8,-,N/A,,Overcast,230,2013-03-20 11:53:00
8:53 AM,32.0,17.1,54,29.86,10.0,Variable,5.8,-,N/A,,Overcast,0,2013-03-20 12:53:00
9:53 AM,34.0,15.1,46,29.86,10.0,West,11.5,19.6,0.00,,Mostly Cloudy,270,2013-03-20 13:53:00
10:53 AM,35.1,14.0,42,29.86,10.0,WSW,13.8,18.4,0.00,,Mostly Cloudy,250,2013-03-20 14:53:00
11:53 AM,37.0,12.0,36,29.85,10.0,WSW,12.7,18.4,0.00,,Partly Cloudy,240,2013-03-20 15:53:00
12:53 PM,37.9,15.1,39,29.83,10.0,West,10.4,17.3,0.00,Rain,Light Rain,260,2013-03-20 16:53:00
1:53 PM,39.0,14.0,36,29.81,10.0,SW,9.2,19.6,0.00,,Partly Cloudy,230,2013-03-20 17:53:00
2:53 PM,41.0,14.0,33,29.79,10.0,West,10.4,18.4,0.00,,Mostly Cloudy,280,2013-03-20 18:53:00
3:53 PM,41.0,12.0,31,29.78,10.0,WSW,8.1,-,N/A,,Mostly Cloudy,240,2013-03-20 19:53:00
4:53 PM,41.0,12.9,32,29.78,10.0,WSW,12.7,21.9,N/A,,Overcast,250,2013-03-20 20:53:00
5:53 PM,39.9,16.0,38,29.78,10.0,WSW,9.2,19.6,N/A,,Scattered Clouds,250,2013-03-20 21:53:00
6:53 PM,39.0,17.1,41,29.80,10.0,WNW,8.1,19.6,0.00,,Mostly Cloudy,290,2013-03-20 22:53:00
7:53 PM,36.0,18.0,48,29.79,10.0,Calm,Calm,-,N/A,,Clear,0,2013-03-20 23:53:00
8:53 PM,35.1,19.9,54,29.81,10.0,NNW,5.8,-,N/A,,Scattered Clouds,340,2013-03-21 00:53:00
9:53 PM,34.0,21.0,59,29.83,10.0,Calm,Calm,-,N/A,,Overcast,0,2013-03-21 01:53:00
10:53 PM,33.1,21.0,61,29.83,10.0,Variable,3.5,-,N/A,,Overcast,0,2013-03-21 02:53:00
11:53 PM,33.1,21.0,61,29.84,10.0,Calm,Calm,-,N/A,,Overcast,0,2013-03-21 03:53:00